CW4185 Weather Reports


time (UTC)temp
F
wind
direction
speed
knots
gust
knots
rain 1hr
in
rain 24hr
in
rain mn
in
humidity
%
barometer
mb
20260905000147 84 165 2.6 5.2 0.00 0.00 0.36 81 1012.9
20260904235646 85 165 3.5 3.5 0.00 0.00 0.36 80 1012.9
20260904235146 86 157 0.9 3.5 0.00 0.00 0.36 78 1012.9
20260904234646 86 37 1.7 2.6 0.00 0.00 0.36 76 1012.9
20260904234146 86 334 1.7 2.6 0.00 0.00 0.36 76 1012.9
20260904233646 87 3 2.6 4.3 0.00 0.00 0.36 75 1012.5
20260904233146 87 351 1.7 3.5 0.00 0.00 0.36 75 1012.5
20260904232647 87 312 2.6 4.3 0.00 0.00 0.36 75 1012.5
20260904232146 87 286 3.5 3.5 0.00 0.00 0.36 73 1012.5
20260904231647 87 5 0.9 3.5 0.00 0.00 0.36 73 1012.5
20260904231146 87 354 1.7 4.3 0.00 0.00 0.36 73 1012.5
20260904230647 87 352 1.7 4.3 0.00 0.00 0.36 73 1012.5
20260904230147 88 347 3.5 6.1 0.00 0.00 0.36 71 1012.9
20260904225647 88 39 1.7 4.3 0.00 0.00 0.36 71 1012.5
20260904225146 88 321 1.7 4.3 0.00 0.00 0.36 70 1012.5
20260904224646 88 307 2.6 3.5 0.00 0.00 0.36 70 1012.5
20260904224147 88 76 1.7 5.2 0.00 0.00 0.36 72 1012.2
20260904223646 87 25 3.5 7.8 0.00 0.00 0.36 72 1012.5
20260904223147 87 353 3.5 6.1 0.00 0.00 0.36 73 1012.5
20260904222647 88 356 4.3 6.1 0.00 0.00 0.36 71 1012.5
20260904222147 88 347 2.6 5.2 0.00 0.00 0.36 69 1012.2
20260904221646 88 355 2.6 6.1 0.00 0.00 0.36 71 1012.2
20260904221146 87 332 3.5 5.2 0.00 0.00 0.36 73 1012.2
20260904220647 87 25 4.3 7.8 0.00 0.00 0.36 73 1012.2
20260904220146 87 343 4.3 6.1 0.00 0.00 0.36 72 1012.2
20260904215647 88 18 2.6 7.0 0.00 0.00 0.36 71 1012.2
20260904215146 87 335 3.5 7.8 0.00 0.00 0.36 72 1012.5
20260904214647 87 312 5.2 7.8 0.00 0.00 0.36 73 1012.5
20260904214146 87 45 2.6 6.1 0.00 0.00 0.36 72 1012.5
20260904213646 87 45 3.5 8.7 0.00 0.00 0.36 71 1012.2
20260904213146 87 337 2.6 6.1 0.00 0.00 0.36 70 1012.2
20260904212646 88 358 4.3 7.0 0.00 0.00 0.36 70 1012.5
20260904212146 88 340 4.3 7.0 0.00 0.00 0.36 70 1012.5
20260904211647 88 35 2.6 6.1 0.00 0.00 0.36 68 1012.5
20260904211147 88 3 2.6 8.7 0.00 0.00 0.36 68 1012.5
20260904210646 88 345 4.3 7.0 0.00 0.00 0.36 69 1012.9
20260904210146 88 354 3.5 6.1 0.00 0.00 0.36 71 1012.5
20260904205647 87 353 2.6 7.8 0.00 0.00 0.36 71 1012.2
20260904205147 88 342 3.5 7.0 0.00 0.00 0.36 72 1012.2
20260904204646 88 336 3.5 6.1 0.00 0.00 0.36 72 1012.5
20260904204146 87 348 3.5 6.1 0.00 0.00 0.36 71 1012.5
20260904203646 87 354 4.3 7.8 0.00 0.00 0.36 71 1012.5
20260904203146 87 39 4.3 7.0 0.00 0.00 0.36 73 1012.5
20260904202646 87 11 4.3 7.0 0.00 0.00 0.36 73 1012.5
20260904202148 87 345 2.6 7.0 0.00 0.00 0.36 72 1012.9
20260904201647 88 31 4.3 7.0 0.00 0.00 0.36 70 1012.9
20260904201146 88 356 5.2 5.2 0.00 0.00 0.36 69 1012.9
20260904200647 88 61 6.1 7.8 0.00 0.00 0.36 70 1012.9
20260904200146 88 339 1.7 6.1 0.00 0.00 0.36 70 1012.9
20260904195647 87 338 2.6 4.3 0.00 0.00 0.36 72 1012.9
20260904195147 87 4 3.5 7.8 0.00 0.00 0.36 73 1013.2
20260904194646 87 52 1.7 7.0 0.00 0.00 0.36 73 1012.9
20260904194146 87 323 2.6 7.8 0.00 0.00 0.36 74 1013.2
20260904193646 87 46 6.1 7.8 0.00 0.00 0.36 73 1013.2
20260904193146 86 5 2.6 7.0 0.00 0.00 0.36 75 1013.5
20260904192647 87 53 6.1 9.6 0.00 0.00 0.36 74 1013.5
20260904192147 86 48 6.1 7.8 0.00 0.00 0.36 76 1013.5
20260904191648 87 42 6.1 8.7 0.00 0.00 0.36 75 1013.5
20260904191147 87 32 6.1 7.8 0.00 0.00 0.36 74 1013.5
20260904190647 87 354 2.6 7.8 0.00 0.00 0.36 76 1013.9
20260904190147 86 30 4.3 7.0 0.00 0.00 0.36 77 1013.9
20260904185646 86 350 4.3 7.8 0.00 0.00 0.36 78 1013.9
20260904185146 86 16 5.2 7.8 0.00 0.00 0.36 78 1013.9
20260904184646 86 36 6.1 9.6 0.00 0.00 0.36 79 1014.2
20260904184147 86 336 6.1 7.8 0.00 0.00 0.36 78 1014.2
20260904183647 86 359 3.5 8.7 0.00 0.00 0.36 77 1014.2
20260904183146 86 350 6.1 9.6 0.00 0.00 0.36 79 1014.2
20260904182646 87 22 5.2 6.1 0.00 0.00 0.36 77 1014.2
20260904182147 86 20 4.3 8.7 0.00 0.00 0.36 76 1014.2
20260904181646 86 326 2.6 7.8 0.00 0.00 0.36 77 1014.2
20260904181147 87 336 4.3 8.7 0.00 0.00 0.36 74 1014.6
20260904180647 87 353 2.6 7.8 0.00 0.00 0.36 75 1014.6
20260904180148 86 11 7.0 7.8 0.00 0.00 0.36 77 1014.6
20260904175647 86 346 5.2 7.8 0.00 0.00 0.36 76 1014.6
20260904175147 85 20 3.5 8.7 0.00 0.00 0.36 77 1014.6
20260904174647 85 47 6.1 7.8 0.00 0.00 0.36 77 1014.6
20260904174148 84 8 3.5 6.1 0.00 0.00 0.36 80 1014.9
20260904173647 84 41 7.0 9.6 0.00 0.00 0.36 80 1014.6
20260904173147 84 21 5.2 7.0 0.00 0.00 0.36 81 1014.6
20260904172646 84 44 2.6 6.1 0.00 0.00 0.36 82 1014.6
20260904172146 84 33 5.2 7.0 0.00 0.00 0.36 81 1014.6
20260904171646 84 7 1.7 7.8 0.00 0.00 0.36 83 1014.6
20260904171146 84 24 6.1 9.6 0.00 0.00 0.36 83 1014.6
20260904170646 84 345 0.9 8.7 0.00 0.00 0.36 84 1014.9
20260904170147 84 11 3.5 7.0 0.00 0.00 0.36 83 1014.2
20260904165646 84 51 4.3 7.8 0.00 0.00 0.36 81 1014.6
20260904165147 84 8 2.6 4.3 0.00 0.00 0.36 82 1014.6
20260904164646 84 27 5.2 8.7 0.00 0.00 0.36 82 1014.6
20260904164146 84 38 5.2 7.0 0.00 0.00 0.36 81 1014.9
20260904163646 84 1 1.7 7.0 0.00 0.00 0.36 82 1014.9
20260904163146 84 29 4.3 6.1 0.00 0.00 0.36 82 1015.2
20260904162646 84 23 4.3 4.3 0.00 0.00 0.36 83 1015.2
20260904162146 84 36 3.5 7.8 0.00 0.00 0.36 83 1014.9
20260904161646 84 35 3.5 6.1 0.00 0.00 0.36 83 1015.2
20260904161147 84 33 3.5 5.2 0.00 0.00 0.36 83 1015.2
20260904160647 84 355 2.6 4.3 0.00 0.00 0.36 84 1015.2
20260904160146 83 348 1.7 5.2 0.00 0.00 0.36 84 1015.2
20260904155649 83 358 1.7 6.1 0.00 0.00 0.36 85 1015.2
20260904155146 83 324 4.3 7.0 0.00 0.00 0.36 84 1015.2
20260904154646 84 53 4.3 7.0 0.00 0.00 0.36 85 1015.2
20260904154149 83 16 4.3 4.3 0.00 0.00 0.36 86 1014.9
20260904153647 83 354 1.7 6.1 0.00 0.00 0.36 86 1014.9
20260904153149 83 20 2.6 4.3 0.00 0.00 0.36 88 1014.9
20260904152646 82 350 2.6 5.2 0.00 0.00 0.36 88 1014.9
20260904152146 82 350 2.6 5.2 0.00 0.00 0.36 88 1014.9
20260904151646 82 14 2.6 5.2 0.00 0.00 0.36 89 1015.2
20260904151147 82 360 2.6 5.2 0.00 0.00 0.36 89 1015.2
20260904150646 82 12 2.6 5.2 0.00 0.00 0.36 89 1015.2
20260904150146 82 350 1.7 6.1 0.00 0.00 0.36 88 1015.2
20260904145646 82 340 2.6 3.5 0.00 0.00 0.36 88 1015.2
20260904145146 82 46 3.5 4.3 0.00 0.00 0.36 87 1014.9
20260904144647 82 360 1.7 4.3 0.00 0.00 0.36 87 1014.9
20260904144148 81 4 2.6 4.3 0.00 0.00 0.36 88 1015.2
20260904143647 81 45 3.5 5.2 0.00 0.00 0.36 88 1014.9
20260904143146 81 48 3.5 4.3 0.00 0.00 0.36 89 1014.9
20260904142646 80 303 1.7 5.2 0.00 0.00 0.36 90 1014.9
20260904142146 80 61 3.5 4.3 0.00 0.00 0.36 90 1014.9
20260904141648 79 69 1.7 2.6 0.00 0.00 0.36 90 1014.9
20260904141146 80 70 2.6 3.5 0.00 0.00 0.36 90 1014.9
20260904140647 79 47 2.6 4.3 0.00 0.00 0.36 90 1014.6
20260904140147 79 96 0.9 3.5 0.00 0.00 0.36 90 1014.9
20260904135647 79 26 0.0 1.7 0.00 0.00 0.36 90 1014.9
20260904135146 78 67 1.7 3.5 0.00 0.00 0.36 90 1014.9
20260904134647 78 7 2.6 5.2 0.00 0.00 0.36 90 1014.6
20260904134147 78 100 2.6 4.3 0.00 0.00 0.36 91 1014.6
20260904133646 77 342 2.6 5.2 0.00 0.00 0.36 92 1014.2
20260904133147 77 340 6.1 8.7 0.00 0.00 0.36 92 1014.2
20260904132647 76 320 3.5 7.0 0.00 0.00 0.36 92 1014.2
20260904132146 76 298 4.3 5.2 0.00 0.00 0.36 92 1014.2
20260904131646 76 316 1.7 4.3 0.00 0.00 0.36 93 1014.2
20260904131147 76 305 3.5 5.2 0.00 0.00 0.36 92 1014.2
20260904130646 75 8 2.6 6.1 0.00 0.00 0.36 94 1014.2
20260904130146 75 317 0.9 3.5 0.00 0.00 0.36 94 1014.2
20260904125647 75 275 1.7 3.5 0.00 0.00 0.36 94 1014.2
20260904125147 75 314 2.6 4.3 0.00 0.00 0.36 94 1014.2
20260904124648 75 293 1.7 4.3 0.00 0.00 0.36 95 1014.2
20260904124147 75 294 1.7 2.6 0.02 0.00 0.36 95 1014.2
20260904123647 75 229 1.7 3.5 0.02 0.00 0.36 94 1014.2
20260904123146 75 282 2.6 4.3 0.00 0.00 0.36 94 1014.2
20260904122647 74 335 5.2 7.8 0.02 0.00 0.36 94 1014.2
20260904122147 74 339 6.1 7.8 0.05 0.00 0.36 95 1014.2
20260904121646 74 347 5.2 10.4 0.02 0.00 0.35 95 1014.2
20260904121148 74 349 2.6 6.1 0.02 0.00 0.35 94 1014.2
20260904120646 74 294 2.6 6.1 0.09 0.00 0.35 93 1013.9
20260904120147 74 357 4.3 7.0 0.14 0.00 0.35 93 1013.9
20260904115647 74 356 3.5 7.8 0.38 0.00 0.34 95 1013.9
20260904115148 74 25 6.1 7.8 0.83 0.00 0.32 94 1014.2
20260904114647 75 357 4.3 8.7 0.80 0.00 0.26 93 1013.9
20260904114146 75 17 4.3 8.7 0.71 0.00 0.18 95 1013.9
20260904113650 75 34 7.8 9.6 0.64 0.00 0.11 95 1013.5
20260904113146 75 59 1.7 7.8 0.26 0.00 0.04 90 1013.5
20260904112646 76 352 5.2 8.7 0.00 0.00 0.00 87 1013.5
20260904112146 76 7 4.3 7.8 0.00 0.00 0.00 87 1013.5
20260904111646 76 334 6.1 7.8 0.00 0.00 0.00 90 1013.5
20260904111146 77 315 4.3 8.7 0.00 0.00 0.00 90 1013.9
20260904110646 78 283 4.3 6.1 0.00 0.00 0.00 86 1013.9
20260904110148 79 328 4.3 7.0 0.00 0.00 0.00 84 1013.5
20260904105647 79 338 3.5 8.7 0.00 0.00 0.00 82 1013.5
20260904105146 80 325 7.0 11.3 0.00 0.00 0.00 86 1013.5
20260904104647 80 352 3.5 5.2 0.00 0.00 0.00 94 1013.5
20260904104146 80 315 0.0 1.7 0.00 0.00 0.00 95 1013.5
20260904103647 80 248 1.7 3.5 0.00 0.00 0.00 94 1013.2
20260904103148 80 273 1.7 1.7 0.00 0.00 0.00 95 1013.2
20260904102647 80 301 0.9 1.7 0.00 0.00 0.00 95 1012.9
20260904102146 80 237 1.7 2.6 0.00 0.00 0.00 95 1012.9
20260904101647 80 213 1.7 2.6 0.00 0.00 0.00 95 1012.9
20260904101147 80 193 1.7 2.6 0.00 0.00 0.00 94 1013.2
20260904100646 80 208 1.7 2.6 0.00 0.00 0.00 94 1012.9
20260904100147 80 198 1.7 2.6 0.00 0.00 0.00 94 1012.9
20260904095646 80 195 1.7 2.6 0.00 0.00 0.00 93 1012.9
20260904095148 81 214 0.0 1.7 0.00 0.00 0.00 93 1012.9
20260904094647 81 297 0.9 0.9 0.00 0.00 0.00 93 1012.5
20260904094146 81 246 0.9 1.7 0.00 0.00 0.00 93 1012.9
20260904093646 80 287 0.9 2.6 0.00 0.00 0.00 93 1012.9
20260904093147 80 281 0.0 2.6 0.00 0.00 0.00 93 1012.9
20260904092646 80 214 0.0 2.6 0.00 0.00 0.00 93 1012.5
20260904092147 80 220 1.7 2.6 0.00 0.00 0.00 92 1012.9
20260904091647 80 267 1.7 2.6 0.00 0.00 0.00 93 1012.9
20260904091147 80 300 1.7 2.6 0.00 0.00 0.00 92 1012.9
20260904090647 80 310 1.7 2.6 0.00 0.00 0.00 92 1012.9
20260904090146 80 300 1.7 2.6 0.00 0.00 0.00 92 1012.9
20260904085647 80 285 2.6 2.6 0.00 0.00 0.00 93 1012.9
20260904085146 80 275 1.7 3.5 0.00 0.00 0.00 93 1012.9
20260904084647 80 282 2.6 2.6 0.00 0.00 0.00 93 1012.9
20260904084147 80 312 0.9 2.6 0.00 0.00 0.00 93 1012.9
20260904083646 81 287 1.7 1.7 0.00 0.00 0.00 93 1012.9
20260904083146 81 272 2.6 2.6 0.00 0.00 0.00 93 1013.2
20260904082646 80 258 0.0 1.7 0.00 0.00 0.00 93 1012.9
20260904082146 80 293 1.7 1.7 0.00 0.00 0.00 93 1012.9
20260904081648 80 341 0.0 0.9 0.00 0.00 0.00 93 1013.2
20260904081146 80 326 0.0 0.9 0.00 0.00 0.00 93 1013.2
20260904080646 80 224 0.0 0.0 0.00 0.00 0.00 93 1012.9
20260904080146 80 224 0.0 0.0 0.00 0.00 0.00 93 1013.2
20260904075646 80 229 0.0 1.7 0.00 0.00 0.00 93 1012.9
20260904075146 80 231 0.9 1.7 0.00 0.00 0.00 93 1012.9
20260904074646 80 193 0.0 1.7 0.00 0.00 0.00 93 1013.2
20260904074148 80 234 0.9 1.7 0.00 0.00 0.00 93 1013.2
20260904073647 80 234 1.7 1.7 0.00 0.00 0.00 93 1013.2
20260904073147 81 210 0.0 0.9 0.00 0.00 0.00 93 1012.9
20260904072646 81 304 0.0 0.0 0.00 0.00 0.00 93 1012.9
20260904072148 80 329 0.0 1.7 0.00 0.00 0.00 93 1013.2
20260904071647 80 230 0.0 0.0 0.00 0.00 0.00 93 1012.9
20260904071147 80 246 0.0 0.9 0.00 0.00 0.00 93 1012.9
20260904070646 80 218 0.9 1.7 0.00 0.00 0.00 93 1013.2
20260904070146 80 237 0.9 1.7 0.00 0.00 0.00 94 1013.2
20260904065647 80 185 0.0 1.7 0.00 0.00 0.00 93 1013.2
20260904065146 80 224 0.0 0.0 0.00 0.00 0.00 93 1013.2
20260904064647 80 222 0.0 0.9 0.00 0.00 0.00 93 1013.2
20260904064146 81 255 0.0 0.9 0.00 0.00 0.00 93 1013.2
20260904063648 80 315 0.0 0.9 0.00 0.00 0.00 93 1013.2
20260904063147 80 224 0.0 0.0 0.00 0.00 0.00 93 1013.2
20260904062647 80 224 0.0 0.9 0.00 0.00 0.00 93 1013.2
20260904062146 80 218 0.0 0.9 0.00 0.00 0.00 93 1013.2
20260904061647 80 242 0.0 0.0 0.00 0.00 0.00 93 1013.2
20260904061148 80 135 0.0 0.0 0.00 0.00 0.00 93 1013.2
20260904060646 80 135 0.0 0.9 0.00 0.00 0.00 93 1013.2
20260904060147 80 32 0.0 0.9 0.00 0.00 0.00 93 1013.5
20260904055647 81 142 0.0 0.0 0.00 0.00 0.00 92 1013.2
20260904055146 81 142 0.0 0.0 0.00 0.00 0.00 92 1013.2
20260904054646 81 195 0.0 0.9 0.00 0.00 0.00 92 1013.2
20260904054146 81 190 0.9 0.9 0.00 0.00 0.00 92 1013.2
20260904053646 81 224 0.9 1.7 0.00 0.00 0.00 92 1013.2
20260904053147 81 184 0.0 0.9 0.00 0.00 0.00 91 1013.2
20260904052646 81 284 0.0 0.9 0.00 0.00 0.00 91 1013.2
20260904052147 81 343 0.0 0.9 0.00 0.00 0.00 91 1013.2
20260904051646 81 272 0.0 1.7 0.00 0.00 0.00 91 1012.9
20260904051147 81 242 0.0 0.9 0.00 0.00 0.00 90 1012.9
20260904050646 81 224 0.0 0.0 0.00 0.00 0.00 90 1012.9
20260904050146 81 269 0.0 0.9 0.00 0.00 0.00 90 1012.9
20260904045647 81 242 0.0 0.9 0.00 0.00 0.00 89 1012.9
20260904045147 81 215 0.0 1.7 0.00 0.00 0.00 89 1012.9
20260904044646 82 229 0.9 1.7 0.00 0.00 0.00 88 1012.5
20260904044146 82 293 0.0 0.0 0.00 0.00 0.00 88 1012.9
20260904043646 82 263 1.7 1.7 0.00 0.00 0.00 89 1012.9
20260904043147 82 222 1.7 2.6 0.00 0.00 0.00 88 1012.9
20260904042646 82 224 0.0 0.9 0.00 0.00 0.00 88 1012.5
20260904042147 82 230 0.0 0.0 0.00 0.00 0.00 87 1012.9
20260904041646 82 224 0.0 0.9 0.00 0.00 0.00 87 1012.9
20260904041148 82 210 0.0 0.9 0.00 0.00 0.00 87 1012.9
20260904040646 82 141 0.9 0.9 0.00 0.00 0.00 87 1012.9
20260904040149 82 315 0.0 0.9 0.00 0.00 0.00 87 1012.9
20260904035646 82 294 0.0 1.7 0.00 0.00 0.00 87 1012.9
20260904035147 82 255 0.0 0.9 0.00 0.00 0.00 86 1012.9
20260904034646 82 173 0.0 0.9 0.00 0.00 0.00 86 1013.2
20260904034146 82 160 1.7 1.7 0.00 0.00 0.00 86 1012.9
20260904033646 82 142 0.0 0.0 0.00 0.00 0.00 86 1013.2
20260904033146 82 224 0.0 0.9 0.00 0.00 0.00 86 1013.2
20260904032646 83 210 0.0 0.9 0.00 0.00 0.00 86 1013.2
20260904032149 82 197 0.9 1.7 0.00 0.00 0.00 86 1013.2
20260904031647 83 195 0.9 1.7 0.00 0.00 0.00 86 1013.2
20260904031146 83 215 0.0 0.9 0.00 0.00 0.00 86 1013.2
20260904030646 83 186 0.9 1.7 0.00 0.00 0.00 86 1013.5
20260904030147 83 173 1.7 2.6 0.00 0.00 0.00 85 1013.5
20260904025647 83 138 1.7 2.6 0.00 0.00 0.00 85 1013.5
20260904025146 83 117 0.0 3.5 0.00 0.00 0.00 85 1013.5
20260904024647 83 176 1.7 2.6 0.00 0.00 0.00 85 1013.5
20260904024147 83 180 0.9 1.7 0.00 0.00 0.00 85 1013.5
20260904023647 83 204 1.7 3.5 0.00 0.00 0.00 85 1013.5
20260904023147 84 164 1.7 1.7 0.00 0.00 0.00 84 1013.5
20260904022646 84 139 1.7 2.6 0.00 0.00 0.00 84 1013.5
20260904022147 84 155 1.7 2.6 0.00 0.00 0.00 84 1013.5
20260904021646 83 118 1.7 2.6 0.00 0.00 0.00 84 1013.5
20260904021146 84 160 2.6 2.6 0.00 0.00 0.00 84 1013.5
20260904020647 84 161 1.7 2.6 0.00 0.00 0.00 84 1013.5
20260904020146 84 140 0.9 2.6 0.00 0.00 0.00 84 1013.5
20260904015647 84 156 1.7 2.6 0.00 0.00 0.00 83 1013.5
20260904015146 84 163 1.7 2.6 0.00 0.00 0.00 83 1013.5
20260904014647 84 161 2.6 2.6 0.00 0.00 0.00 83 1013.2
20260904014147 84 176 1.7 2.6 0.00 0.00 0.00 83 1013.2
20260904013646 84 163 1.7 2.6 0.00 0.00 0.00 83 1013.2
20260904013148 84 158 2.6 2.6 0.00 0.00 0.00 82 1013.2
20260904012646 84 154 1.7 3.5 0.00 0.00 0.00 82 1013.2
20260904012146 84 145 2.6 3.5 0.00 0.00 0.00 83 1012.9
20260904011646 84 161 2.6 3.5 0.00 0.00 0.00 83 1013.2
20260904011146 84 164 2.6 2.6 0.00 0.00 0.00 83 1013.2
20260904010647 84 183 3.5 3.5 0.00 0.00 0.00 82 1013.2
20260904010147 84 167 2.6 3.5 0.00 0.00 0.00 82 1013.2
20260904005646 84 155 3.5 4.3 0.00 0.00 0.00 81 1013.2
20260904005146 84 173 1.7 4.3 0.00 0.00 0.00 81 1013.2
20260904004646 84 172 4.3 4.3 0.00 0.00 0.00 82 1013.2
20260904004147 85 168 4.3 5.2 0.00 0.00 0.00 81 1013.2
20260904003646 85 182 4.3 6.1 0.00 0.00 0.00 81 1013.5
20260904003146 85 186 4.3 5.2 0.00 0.00 0.00 81 1013.2
20260904002646 85 168 3.5 5.2 0.00 0.00 0.00 80 1013.2
20260904002146 85 191 2.6 4.3 0.00 0.00 0.00 80 1013.2
20260904001646 85 162 2.6 4.3 0.00 0.00 0.00 80 1013.2
20260904001146 85 167 2.6 5.2 0.00 0.00 0.00 79 1013.2
20260904000647 86 166 3.5 4.3 0.00 0.00 0.00 79 1012.9